weather.gov     
National Weather Service

Terminal Aerodrome Forecast
NWS Homepage
This page is being discontinued on March 12, 2014.
The same data is available at this site. Please update your bookmarks.
Thank you, and we apologize for the inconvenience.
Please send an email to SR-SRH.Webmaster@noaa.gov with any concerns.


Current Version
Previous Version:    01  02  03  04  05  06  07  08  09  10  11  12  13  14  15  16  17  18  19  20  21  22  23  
[Printable]
739
FTUS45 KRIW 210500
TAFRKS
TAF
KRKS 210522Z 2106/2206 17010KT P6SM SCT080 BKN150
     FM211600 22016G24KT P6SM SCT040 BKN070
     FM211900 26018G28KT P6SM -SHRA SCT030 BKN050
     FM220100 28011G19KT P6SM SCT070 BKN120
     FM220400 25007KT P6SM SCT100=


U.S. Dept. of Commerce
NOAA National Weather Service
1325 East West Highway
Silver Spring, MD 20910
E-mail: w-nws.webmaster@noaa.gov
Page last modified: May 16, 2007
NATIONAL WEATHER SERVICE: for Safety, for Work, for Fun - FOR LIFE